GW2898 Weather Reports


Display with metric or nautical units.
time (UTC)temp
F
wind
direction
speed
MPH
gust
MPH
rain 1hr
in
rain 24hr
in
rain mn
in
humidity
%
barometer
mb
20260508014313 91 282 3.0 6.0 0.00 0.00 0.00 12 1011.3
20260508013809 91 241 2.0 5.0 0.00 0.00 0.00 12 1011.3
20260508013305 91 247 4.0 9.0 0.00 0.00 0.00 12 1011.1
20260508012803 91 271 5.0 7.0 0.00 0.00 0.00 11 1011.0
20260508012300 92 240 7.0 9.0 0.00 0.00 0.00 11 1011.2
20260508011758 92 310 6.0 11.0 0.00 0.00 0.00 12 1011.0
20260508011255 91 195 4.0 5.0 0.00 0.00 0.00 11 1010.8
20260508010752 92 219 2.0 9.0 0.00 0.00 0.00 11 1011.1
20260508010250 93 259 3.0 4.0 0.00 0.00 0.00 11 1010.9
20260508005747 93 275 3.0 7.0 0.00 0.00 0.00 11 1011.0
20260508005243 94 237 4.0 5.0 0.00 0.00 0.00 11 1010.7
20260508004739 94 283 1.0 4.0 0.00 0.00 0.00 11 1010.8
20260508004235 94 251 2.0 4.0 0.00 0.00 0.00 10 1010.8
20260508003732 94 142 2.0 5.0 0.00 0.00 0.00 12 1011.0
20260508003230 94 226 2.0 3.0 0.00 0.00 0.00 11 1010.9
20260508002726 95 228 3.0 5.0 0.00 0.00 0.00 11 1010.9
20260508002223 93 232 6.0 8.0 0.00 0.00 0.00 11 1011.1
20260508001719 95 153 2.0 6.0 0.00 0.00 0.00 11 1011.0
20260508001214 95 252 3.0 6.0 0.00 0.00 0.00 10 1011.0
20260508000711 97 249 1.0 2.0 0.00 0.00 0.00 10 1011.0
20260508000209 94 225 2.0 5.0 0.00 0.00 0.00 11 1010.8
20260507235705 95 266 3.0 5.0 0.00 0.00 0.00 10 1011.1
20260507235202 94 255 1.0 6.0 0.00 0.00 0.00 9 1011.0
20260507234659 94 238 3.0 8.0 0.00 0.00 0.00 11 1011.1
20260507234155 95 150 2.0 3.0 0.00 0.00 0.00 10 1011.1
20260507233652 95 245 4.0 8.0 0.00 0.00 0.00 10 1011.1
20260507233151 94 230 3.0 7.0 0.00 0.00 0.00 10 1011.2
20260507232647 95 277 1.0 10.0 0.00 0.00 0.00 12 1011.2
20260507232144 95 331 4.0 6.0 0.00 0.00 0.00 10 1011.4
20260507231641 94 15 3.0 6.0 0.00 0.00 0.00 10 1011.2
20260507231138 94 81 2.0 4.0 0.00 0.00 0.00 11 1011.2
20260507230634 95 100 3.0 5.0 0.00 0.00 0.00 13 1011.2
20260507230132 95 68 0.0 5.0 0.00 0.00 0.00 10 1011.3
20260507225626 96 100 2.0 6.0 0.00 0.00 0.00 9 1011.3
20260507225123 95 230 2.0 5.0 0.00 0.00 0.00 10 1011.3
20260507224619 95 223 2.0 5.0 0.00 0.00 0.00 12 1011.6
20260507224116 94 183 2.0 7.0 0.00 0.00 0.00 10 1011.4
20260507223612 94 189 3.0 4.0 0.00 0.00 0.00 11 1011.7
20260507223109 95 77 4.0 9.0 0.00 0.00 0.00 11 1011.6
20260507222606 94 213 4.0 7.0 0.00 0.00 0.00 10 1011.9
20260507222102 95 56 2.0 4.0 0.00 0.00 0.00 10 1011.8
20260507221558 95 269 0.0 4.0 0.00 0.00 0.00 10 1011.7
20260507221055 94 225 2.0 4.0 0.00 0.00 0.00 11 1011.7
20260507220552 95 6 0.0 3.0 0.00 0.00 0.00 12 1011.7
20260507220050 93 164 3.0 5.0 0.00 0.00 0.00 11 1012.1
20260507215546 93 211 4.0 7.0 0.00 0.00 0.00 15 1012.1
20260507215044 92 26 1.0 8.0 0.00 0.00 0.00 9 1012.2
20260507214541 93 228 7.0 14.0 0.00 0.00 0.00 12 1012.2
20260507214037 93 289 4.0 5.0 0.00 0.00 0.00 12 1012.2
20260507213533 94 153 5.0 6.0 0.00 0.00 0.00 11 1012.4
20260507213030 93 174 2.0 5.0 0.00 0.00 0.00 12 1012.4
20260507212526 92 227 2.0 8.0 0.00 0.00 0.00 16 1012.5
20260507212023 92 205 5.0 10.0 0.00 0.00 0.00 13 1012.6
20260507211520 93 230 6.0 8.0 0.00 0.00 0.00 12 1013.0
20260507211016 93 220 2.0 5.0 0.00 0.00 0.00 13 1012.8
20260507210513 92 170 4.0 10.0 0.00 0.00 0.00 12 1013.1
20260507210010 92 317 4.0 7.0 0.00 0.00 0.00 12 1012.7
20260507205507 92 320 4.0 8.0 0.00 0.00 0.00 11 1013.3
20260507205003 91 338 3.0 5.0 0.00 0.00 0.00 11 1013.2
20260507204459 92 258 5.0 6.0 0.00 0.00 0.00 11 1013.4
20260507203957 93 239 0.0 5.0 0.00 0.00 0.00 12 1013.3
20260507203455 94 1 3.0 5.0 0.00 0.00 0.00 12 1013.4
20260507202951 93 226 2.0 4.0 0.00 0.00 0.00 11 1013.6
20260507202448 94 275 2.0 3.0 0.00 0.00 0.00 11 1013.5
20260507201944 92 340 3.0 5.0 0.00 0.00 0.00 12 1013.6
20260507201439 93 343 1.0 5.0 0.00 0.00 0.00 14 1013.5
20260507200936 91 333 5.0 6.0 0.00 0.00 0.00 13 1013.6
20260507200431 91 68 2.0 3.0 0.00 0.00 0.00 11 1013.8
20260507195927 90 202 2.0 4.0 0.00 0.00 0.00 16 1014.1
20260507195425 90 330 2.0 6.0 0.00 0.00 0.00 11 1014.1
20260507194922 90 220 4.0 5.0 0.00 0.00 0.00 13 1014.1
20260507194419 90 228 3.0 5.0 0.00 0.00 0.00 12 1014.2
20260507193915 91 118 1.0 3.0 0.00 0.00 0.00 14 1014.2
20260507193412 91 159 2.0 4.0 0.00 0.00 0.00 18 1014.2
20260507192909 91 13 1.0 4.0 0.00 0.00 0.00 13 1014.3
20260507192405 91 262 3.0 4.0 0.00 0.00 0.00 12 1014.3
20260507191902 91 338 3.0 5.0 0.00 0.00 0.00 11 1014.6
20260507191358 90 344 1.0 3.0 0.00 0.00 0.00 11 1014.5
20260507190854 90 156 0.0 8.0 0.00 0.00 0.00 14 1014.5
20260507190353 90 11 2.0 4.0 0.00 0.00 0.00 13 1014.6
20260507185851 89 340 3.0 8.0 0.00 0.00 0.00 13 1014.6
20260507185348 90 74 2.0 4.0 0.00 0.00 0.00 12 1014.7
20260507184845 90 352 2.0 5.0 0.00 0.00 0.00 12 1014.9
20260507184343 89 101 4.0 6.0 0.00 0.00 0.00 13 1014.9
20260507183839 90 192 1.0 5.0 0.00 0.00 0.00 17 1014.8
20260507183336 89 144 3.0 6.0 0.00 0.00 0.00 20 1015.0
20260507182834 88 225 3.0 6.0 0.00 0.00 0.00 18 1015.1
20260507182329 87 200 4.0 10.0 0.00 0.00 0.00 16 1015.0
20260507181826 87 226 3.0 3.0 0.00 0.00 0.00 17 1015.1
20260507181322 87 358 1.0 7.0 0.00 0.00 0.00 16 1015.3
20260507180819 88 47 2.0 5.0 0.00 0.00 0.00 15 1015.2
20260507180316 88 75 0.0 3.0 0.00 0.00 0.00 15 1015.4
20260507175811 87 228 3.0 5.0 0.00 0.00 0.00 18 1015.4
20260507175309 87 187 2.0 5.0 0.00 0.00 0.00 20 1015.5
20260507174806 86 37 0.0 6.0 0.00 0.00 0.00 17 1015.7
20260507174304 85 223 4.0 5.0 0.00 0.00 0.00 18 1015.5
20260507173801 87 214 0.0 4.0 0.00 0.00 0.00 19 1015.7
20260507173258 86 132 2.0 6.0 0.00 0.00 0.00 19 1015.7
20260507172754 86 269 0.0 4.0 0.00 0.00 0.00 18 1016.0
20260507172251 86 97 2.0 5.0 0.00 0.00 0.00 21 1015.8
20260507171747 85 124 0.0 3.0 0.00 0.00 0.00 19 1016.0
20260507171244 85 77 0.0 4.0 0.00 0.00 0.00 18 1016.0
20260507170741 84 76 3.0 4.0 0.00 0.00 0.00 20 1015.6
20260507170237 84 65 2.0 6.0 0.00 0.00 0.00 20 1015.7
20260507165733 83 279 2.0 4.0 0.00 0.00 0.00 20 1016.1
20260507165229 84 149 0.0 4.0 0.00 0.00 0.00 22 1016.3
20260507164726 83 63 0.0 2.0 0.00 0.00 0.00 23 1016.0
20260507164223 81 313 2.0 4.0 0.00 0.00 0.00 22 1016.0
20260507163720 83 207 1.0 4.0 0.00 0.00 0.00 23 1016.1
20260507163218 83 5 1.0 4.0 0.00 0.00 0.00 21 1016.2
20260507162713 83 99 3.0 5.0 0.00 0.00 0.00 21 1016.0
20260507162210 83 64 1.0 5.0 0.00 0.00 0.00 23 1016.0
20260507161706 83 87 2.0 3.0 0.00 0.00 0.00 23 1016.2
20260507161203 82 71 3.0 5.0 0.00 0.00 0.00 25 1016.3
20260507160659 81 359 2.0 4.0 0.00 0.00 0.00 24 1016.3
20260507160156 82 348 0.0 3.0 0.00 0.00 0.00 26 1016.1
20260507155651 81 172 1.0 4.0 0.00 0.00 0.00 26 1016.5
20260507155148 81 111 2.0 3.0 0.00 0.00 0.00 29 1016.4
20260507154644 80 12 2.0 5.0 0.00 0.00 0.00 26 1016.4
20260507154143 80 58 0.0 5.0 0.00 0.00 0.00 28 1016.3
20260507153639 79 82 3.0 6.0 0.00 0.00 0.00 26 1016.8
20260507153135 79 359 0.0 3.0 0.00 0.00 0.00 26 1016.5
20260507152631 79 85 2.0 4.0 0.00 0.00 0.00 28 1016.5
20260507152127 78 336 0.0 2.0 0.00 0.00 0.00 28 1016.5
20260507151624 77 140 2.0 4.0 0.00 0.00 0.00 29 1016.7
20260507151121 77 89 2.0 5.0 0.00 0.00 0.00 28 1016.6
20260507150618 76 82 0.0 3.0 0.00 0.00 0.00 32 1016.7
20260507150114 75 185 1.0 3.0 0.00 0.00 0.00 32 1016.5
20260507145609 75 135 2.0 4.0 0.00 0.00 0.00 31 1016.6
20260507145107 76 173 0.0 4.0 0.00 0.00 0.00 34 1016.3
20260507144603 74 218 0.0 1.0 0.00 0.00 0.00 32 1016.2
20260507144101 75 23 1.0 3.0 0.00 0.00 0.00 32 1016.5
20260507143558 78 13 0.0 1.0 0.00 0.00 0.00 29 1016.4
20260507143055 74 37 0.0 1.0 0.00 0.00 0.00 32 1016.6
20260507142555 72 230 0.0 1.0 0.00 0.00 0.00 33 1016.4
20260507142053 72 269 0.0 2.0 0.00 0.00 0.00 37 1016.4
20260507141548 74 135 0.0 0.0 0.00 0.00 0.00 33 1016.4
20260507141045 73 135 0.0 2.0 0.00 0.00 0.00 31 1016.3
20260507140542 71 180 0.0 1.0 0.00 0.00 0.00 34 1016.4
20260507140040 71 139 2.0 3.0 0.00 0.00 0.00 35 1016.3
20260507135536 71 255 0.0 2.0 0.00 0.00 0.00 37 1016.1
20260507135034 71 49 0.0 1.0 0.00 0.00 0.00 36 1016.3
20260507134530 71 80 0.0 3.0 0.00 0.00 0.00 33 1016.1
20260507134026 69 67 1.0 2.0 0.00 0.00 0.00 37 1016.2
20260507133522 67 6 1.0 4.0 0.00 0.00 0.00 38 1015.7
20260507133021 66 324 0.0 3.0 0.00 0.00 0.00 40 1016.1
20260507132517 65 304 0.0 3.0 0.00 0.00 0.00 42 1016.0
20260507132013 63 275 0.0 3.0 0.00 0.00 0.00 43 1016.1
20260507131510 63 83 1.0 3.0 0.00 0.00 0.00 45 1016.0
20260507131007 61 269 0.0 4.0 0.00 0.00 0.00 48 1016.2
20260507130504 60 35 2.0 4.0 0.00 0.00 0.00 51 1016.0
20260507130003 59 33 1.0 2.0 0.00 0.00 0.00 54 1016.0
20260507125501 58 96 2.0 3.0 0.00 0.00 0.00 55 1016.3
20260507124957 58 110 2.0 3.0 0.00 0.00 0.00 55 1016.0
20260507124454 58 91 2.0 3.0 0.00 0.00 0.00 56 1016.1
20260507123952 57 89 1.0 2.0 0.00 0.00 0.00 56 1016.0
20260507123449 58 111 0.0 2.0 0.00 0.00 0.00 57 1015.8
20260507122945 59 63 1.0 2.0 0.00 0.00 0.00 57 1015.8
20260507122441 58 147 0.0 2.0 0.00 0.00 0.00 59 1016.2
20260507121937 57 113 0.0 2.0 0.00 0.00 0.00 58 1016.0
20260507121432 58 98 0.0 2.0 0.00 0.00 0.00 56 1016.0
20260507120930 58 35 1.0 3.0 0.00 0.00 0.00 56 1015.7
20260507120426 58 37 0.0 2.0 0.00 0.00 0.00 56 1015.7
20260507115922 59 96 2.0 3.0 0.00 0.00 0.00 54 1015.8
20260507115418 59 81 2.0 3.0 0.00 0.00 0.00 54 1016.2
20260507114914 59 80 2.0 3.0 0.00 0.00 0.00 53 1015.8
20260507114411 59 85 2.0 3.0 0.00 0.00 0.00 52 1015.8
20260507113908 57 98 1.0 3.0 0.00 0.00 0.00 56 1016.0
20260507113406 58 88 1.0 2.0 0.00 0.00 0.00 53 1015.7
20260507112903 59 110 2.0 3.0 0.00 0.00 0.00 54 1015.8
20260507112400 58 93 1.0 2.0 0.00 0.00 0.00 55 1016.1
20260507111857 58 106 0.0 2.0 0.00 0.00 0.00 55 1016.2
20260507111354 59 61 2.0 2.0 0.00 0.00 0.00 54 1015.8
20260507110850 59 101 1.0 2.0 0.00 0.00 0.00 52 1015.8
20260507110346 60 163 0.0 2.0 0.00 0.00 0.00 51 1015.8
20260507105844 60 57 0.0 2.0 0.00 0.00 0.00 49 1016.1
20260507105340 60 95 2.0 3.0 0.00 0.00 0.00 49 1015.8
20260507104837 61 52 2.0 2.0 0.00 0.00 0.00 49 1015.8
20260507104334 61 19 2.0 3.0 0.00 0.00 0.00 47 1016.0
20260507103829 60 48 1.0 2.0 0.00 0.00 0.00 48 1016.0
20260507103326 60 86 2.0 3.0 0.00 0.00 0.00 49 1016.2
20260507102822 59 95 2.0 3.0 0.00 0.00 0.00 50 1016.2
20260507102319 60 111 0.0 2.0 0.00 0.00 0.00 50 1016.1
20260507101816 60 6 0.0 1.0 0.00 0.00 0.00 48 1016.3
20260507101315 61 76 1.0 2.0 0.00 0.00 0.00 47 1016.5
20260507100813 61 32 1.0 2.0 0.00 0.00 0.00 46 1016.3
20260507100311 62 100 0.0 2.0 0.00 0.00 0.00 46 1016.3
20260507095809 63 38 1.0 3.0 0.00 0.00 0.00 44 1016.6
20260507095306 62 27 1.0 2.0 0.00 0.00 0.00 44 1016.4
20260507094802 62 35 0.0 3.0 0.00 0.00 0.00 46 1016.4
20260507094259 62 124 0.0 2.0 0.00 0.00 0.00 46 1016.6
20260507093756 62 33 1.0 2.0 0.00 0.00 0.00 45 1016.4
20260507093254 62 34 2.0 3.0 0.00 0.00 0.00 44 1016.5
20260507092752 62 49 1.0 2.0 0.00 0.00 0.00 43 1016.5
20260507092247 63 52 1.0 2.0 0.00 0.00 0.00 43 1016.5
20260507091744 64 129 0.0 2.0 0.00 0.00 0.00 42 1016.5
20260507091241 64 98 2.0 3.0 0.00 0.00 0.00 40 1016.4
20260507090736 64 50 1.0 2.0 0.00 0.00 0.00 40 1016.5
20260507090233 64 61 2.0 3.0 0.00 0.00 0.00 39 1016.5
20260507085730 64 34 0.0 2.0 0.00 0.00 0.00 40 1016.6
20260507085227 65 102 0.0 1.0 0.00 0.00 0.00 40 1016.6
20260507084724 67 79 1.0 3.0 0.00 0.00 0.00 37 1016.6
20260507084220 67 95 2.0 2.0 0.00 0.00 0.00 37 1016.5
20260507083718 66 71 1.0 3.0 0.00 0.00 0.00 36 1016.5
20260507083214 66 33 1.0 2.0 0.00 0.00 0.00 37 1016.5
20260507082710 67 41 0.0 3.0 0.00 0.00 0.00 37 1016.7
20260507082206 67 33 1.0 4.0 0.00 0.00 0.00 36 1016.7
20260507081703 64 82 2.0 3.0 0.00 0.00 0.00 40 1016.6
20260507081159 63 66 1.0 2.0 0.00 0.00 0.00 45 1016.9
20260507080656 63 62 1.0 2.0 0.00 0.00 0.00 44 1016.8
20260507080153 62 87 2.0 2.0 0.00 0.00 0.00 47 1016.7
20260507075648 63 94 1.0 2.0 0.00 0.00 0.00 44 1016.7
20260507075144 63 89 0.0 3.0 0.00 0.00 0.00 44 1016.9
20260507074641 64 50 0.0 2.0 0.00 0.00 0.00 42 1017.0
20260507074139 64 61 1.0 3.0 0.00 0.00 0.00 42 1016.8
20260507073635 64 89 1.0 3.0 0.00 0.00 0.00 43 1016.7
20260507073131 64 73 2.0 2.0 0.00 0.00 0.00 42 1016.9
20260507072630 63 66 0.0 2.0 0.00 0.00 0.00 41 1017.0
20260507072127 64 140 0.0 2.0 0.00 0.00 0.00 39 1016.7
20260507071624 65 122 0.0 2.0 0.00 0.00 0.00 38 1016.8
20260507071120 65 104 1.0 3.0 0.00 0.00 0.00 40 1016.7
20260507070617 65 48 1.0 2.0 0.00 0.00 0.00 37 1016.8
20260507070114 66 49 0.0 1.0 0.00 0.00 0.00 36 1016.8
20260507065611 66 157 1.0 2.0 0.00 0.00 0.00 36 1016.8
20260507065108 67 95 1.0 2.0 0.00 0.00 0.00 35 1016.7
20260507064605 68 77 2.0 3.0 0.00 0.00 0.00 35 1016.7
20260507064104 66 131 0.0 2.0 0.00 0.00 0.00 41 1016.6
20260507063601 66 26 2.0 3.0 0.00 0.00 0.00 42 1016.9
20260507063058 66 23 0.0 2.0 0.00 0.00 0.00 42 1016.6
20260507062554 66 30 0.0 2.0 0.00 0.00 0.00 42 1016.8
20260507062052 66 50 0.0 2.0 0.00 0.00 0.00 42 1016.7
20260507061550 66 87 0.0 2.0 0.00 0.00 0.00 42 1016.7
20260507061048 66 84 1.0 2.0 0.00 0.00 0.00 44 1016.7
20260507060545 65 60 0.0 2.0 0.00 0.00 0.00 43 1016.9
20260507060042 66 67 1.0 2.0 0.00 0.00 0.00 42 1016.8
20260507055542 66 50 1.0 2.0 0.00 0.00 0.00 42 1016.7
20260507055039 66 40 0.0 2.0 0.00 0.00 0.00 43 1016.8
20260507054535 66 111 0.0 2.0 0.00 0.00 0.00 42 1016.7
20260507054032 66 34 0.0 2.0 0.00 0.00 0.00 42 1016.8
20260507053530 66 40 1.0 2.0 0.00 0.00 0.00 42 1017.1
20260507053029 66 129 0.0 1.0 0.00 0.00 0.00 40 1016.9
20260507052526 66 129 0.0 2.0 0.00 0.00 0.00 40 1016.7
20260507052022 67 89 1.0 2.0 0.00 0.00 0.00 39 1017.0
20260507051520 66 61 0.0 1.0 0.00 0.00 0.00 40 1016.9
20260507051017 66 53 0.0 2.0 0.00 0.00 0.00 40 1016.7
20260507050513 67 32 0.0 2.0 0.00 0.00 0.00 40 1016.8
20260507050010 67 48 0.0 2.0 0.00 0.00 0.00 39 1016.6
20260507045507 68 98 0.0 2.0 0.00 0.00 0.00 38 1016.6
20260507045004 68 37 1.0 2.0 0.00 0.00 0.00 38 1016.8
20260507044501 68 55 0.0 2.0 0.00 0.00 0.00 37 1016.8
20260507043957 68 27 1.0 2.0 0.00 0.00 0.00 37 1016.5
20260507043453 68 113 0.0 2.0 0.00 0.00 0.00 37 1016.6
20260507042949 68 49 1.0 2.0 0.00 0.00 0.00 38 1016.6
20260507042446 68 157 0.0 1.0 0.00 0.00 0.00 37 1016.6
20260507041942 69 113 0.0 0.0 0.00 0.00 0.00 36 1016.4
20260507041439 69 89 0.0 1.0 0.00 0.00 0.00 36 1016.3
20260507040936 69 54 1.0 2.0 0.00 0.00 0.00 37 1016.3
20260507040432 69 23 0.0 2.0 0.00 0.00 0.00 37 1016.2
20260507035928 69 32 0.0 1.0 0.00 0.00 0.00 35 1016.3
20260507035425 69 130 0.0 2.0 0.00 0.00 0.00 35 1016.3
20260507034922 70 147 0.0 1.0 0.00 0.00 0.00 34 1016.0
20260507034419 70 37 0.0 1.0 0.00 0.00 0.00 34 1016.2
20260507033917 71 47 1.0 1.0 0.00 0.00 0.00 33 1016.0
20260507033414 71 57 0.0 2.0 0.00 0.00 0.00 32 1016.0
20260507032911 71 44 0.0 2.0 0.00 0.00 0.00 32 1015.8
20260507032408 71 142 0.0 1.0 0.00 0.00 0.00 33 1015.8
20260507031904 71 129 0.0 1.0 0.00 0.00 0.00 33 1016.2
20260507031401 72 186 0.0 0.0 0.00 0.00 0.00 31 1016.0
20260507030857 72 147 0.0 0.0 0.00 0.00 0.00 31 1015.5
20260507030355 72 147 0.0 0.0 0.00 0.00 0.00 30 1015.4
20260507025851 73 37 0.0 1.0 0.00 0.00 0.00 28 1015.6
20260507025349 75 44 0.0 1.0 0.00 0.00 0.00 28 1015.4
20260507024847 76 78 0.0 1.0 0.00 0.00 0.00 26 1015.3
20260507024344 76 130 0.0 1.0 0.00 0.00 0.00 25 1015.5
20260507023839 78 37 0.0 1.0 0.00 0.00 0.00 25 1015.2
20260507023337 78 15 0.0 2.0 0.00 0.00 0.00 24 1015.4
20260507022834 79 343 1.0 3.0 0.00 0.00 0.00 23 1015.1
20260507022330 79 355 1.0 2.0 0.00 0.00 0.00 24 1015.3
20260507021826 79 331 3.0 6.0 0.00 0.00 0.00 23 1015.2
20260507021322 78 358 0.0 2.0 0.00 0.00 0.00 24 1015.2
20260507020820 79 195 2.0 3.0 0.00 0.00 0.00 24 1014.9
20260507020316 79 185 2.0 3.0 0.00 0.00 0.00 22 1015.0
20260507015813 79 89 0.0 1.0 0.00 0.00 0.00 23 1015.0
20260507015311 80 160 0.0 1.0 0.00 0.00 0.00 23 1014.9
20260507014807 80 37 0.0 2.0 0.00 0.00 0.00 23 1014.8